Location: USNO
(38.9242°N, 77.0663°W)
Time: 18:14:38
(UTC-04:00)

Vanguard 1 Rocket - Visible Passes

Search period start: 20 April 2018 00:00
Search period end: 30 April 2018 00:00
Orbit: 655 x 4223 km, 34.3° (Epoch: 19 April)

Date Brightness Start Highest point End Pass type
(mag) Time Alt. Az. Time Alt. Az. Time Alt. Az.
20 Apr 11.4 05:10:41 10° S 05:25:01 20° SE 05:35:36 10° ESE visible
21 Apr 11.7 04:03:38 10° SSE 04:11:36 13° SE 04:18:36 10° ESE visible
22 Apr 11.2 05:10:04 10° SSW 05:27:54 27° SE 05:40:20 10° E visible
23 Apr 11.5 04:00:10 10° S 04:14:26 19° SE 04:25:53 10° ESE visible
24 Apr 11.8 02:58:49 10° SE 03:00:53 10° SE 03:02:55 10° SE visible
24 Apr 11.1 05:10:18 10° SSW 05:30:41 34° SSE 05:44:25 10° E visible
25 Apr 11.4 03:59:03 10° S 04:17:04 25° SE 04:31:01 10° E visible
26 Apr 11.6 02:51:00 10° SSE 03:03:30 16° SE 03:14:35 10° ESE visible
26 Apr 10.9 05:11:05 10° SSW 05:33:23 42° SSE 05:48:09 10° E visible
27 Apr 11.2 04:00:43 12° SSW 04:19:37 32° SE 04:35:19 10° E visible
28 Apr 11.5 02:53:33 15° SSE 03:05:55 22° SE 03:20:31 10° E visible
28 Apr 10.8 05:12:19 10° SW 05:36:02 49° SSE 05:51:37 10° E visible
29 Apr 11.6 01:46:19 11° SE 01:52:31 12° SE 02:00:20 10° ESE visible
29 Apr 11.0 04:03:35 16° SSW 04:22:05 39° SE 04:39:06 10° E visible
